Regional Weather Roundup
Issued by NWS

Home | Current Version | Previous Version | Text Only | Print | Product List | Glossary Off
Versions: 1 2 3 4 5 6 7 8 9 10 11 12 13 14 15 16 17 18 19 20 21 22 23 24 25 26 27 28 29 30 31 32 33 34 35 36 37 38 39 40 41 42 43 44 45 46 47 48 49

000
ASUS43 KDMX 272307
RWRIA

WEATHER ROUNDUP FOR IOWA
NATIONAL WEATHER SERVICE DES MOINES IA
600 PM CDT MON JUL 27 2015

NOTE: "FAIR" INDICATES FEW OR NO CLOUDS BELOW 12,000 FEET WITH NO
SIGNIFICANT WEATHER AND/OR OBSTRUCTIONS TO VISIBILITY.

* - THESE STATIONS ARE NOT NWS STATIONS...THUS NOT UNDER NWS
QUALITY CONTROL.  THEY ALSO DO NOT REPORT WEATHER SUCH
AS PRECIPITATION OR FOG.

IAZ001>003-012>014-020>022-031>034-043>046-280000-
   NORTHWEST IOWA

CITY           SKY/WX    TMP DP  RH WIND       PRES   REMARKS
CARROLL *      SUNNY     79  72  78 SE16      29.89S HX  82
CHEROKEE *     SUNNY     82  73  74 S17       29.85S HX  88
DENISON *      SUNNY     81  72  74 SE10G18   29.86S HX  84
LE MARS *      SUNNY     84  75  74 S13G22    29.83S HX  92
ORANGE CITY *  SUNNY     82  72  69 S12G18    29.84S HX  87
SHELDON *      SUNNY     84  73  70 S14       29.83S HX  91
SIOUX CITY     SUNNY     86  74  67 S13       29.82S HX  94
SPENCER        SUNNY     86  71  60 S13       29.86S HX  91
STORM LAKE *   SUNNY     81  70  69 S16G23    29.88S HX  84
$$

IAZ055>058-069>071-079>083-090>094-280000-
   SOUTHWEST IOWA

CITY           SKY/WX    TMP DP  RH WIND       PRES   REMARKS
ATLANTIC *     PTSUNNY   77  70  78 SE13G22   29.90S
AUDUBON *      MOSUNNY   77  72  83 SE13      29.92S
CLARINDA *     MOSUNNY   81  73  78 E14G24    29.91R HX  85
COUNCIL BLFS * SUNNY     82  75  78 E13G20    29.86S HX  89
CRESTON *      CLOUDY    75  70  83 E20       29.93F
HARLAN  *      SUNNY     79  77  94 SE16G24   29.92S HX  83
LAMONI         PTSUNNY   79  72  79 E10G20    29.93F HX  82
RED OAK *      PTSUNNY   81  72  74 E18G25    29.88S HX  84
SHENANDOAH *   PTSUNNY   88  81  79 SE7G14    29.87R HX 105
$$

IAZ047>049-059>061-072>074-084-280000-
   CENTRAL IOWA

CITY           SKY/WX    TMP DP  RH WIND       PRES   REMARKS
AMES           CLOUDY    71  67  87 S18G26    29.88F
ANKENY *       MOSUNNY   75  70  83 MISG      29.93S
CHARITON *     CLOUDY    73  70  88 E12G21    29.94F
DES MOINES     CLOUDY    75  69  81 SE12      29.93F
GRINNELL*      RAIN      72  70  94 S9        29.97F
KNOXVILLE *    LGT RAIN  72  70  94 E13       29.93F
MARSHALLTOWN   CLOUDY    73  70  90 SE10      29.94R
PELLA *        RAIN      72  72 100 S5        29.99F
PERRY *          N/A     77  70  78 SE15G21   29.91F
$$

IAZ004>006-015-016-023>025-035-036-280000-
   NORTH CENTRAL IOWA

CITY           SKY/WX    TMP DP  RH WIND       PRES   REMARKS
ALGONA *       SUNNY     81  70  69 SE10      29.89S HX  84
CLARION *      SUNNY     77  70  78 SE13G22   29.91R
ESTHERVILLE    SUNNY     82  69  64 SE8       29.87S HX  85
FORT DODGE *   MOSUNNY   81  70  69 CALM      29.90R HX  84
MASON CITY     CLOUDY    76  73  91 SE14      29.91F
FOREST CITY *  SUNNY     81  70  69 E12       29.89S HX  84
IOWA FALLS *     N/A     75  68  78 SE9       29.94R
$$

IAZ007>011-017>019-026>030-037>042-050>054-066-280000-
   NORTHEAST IOWA

CITY           SKY/WX    TMP DP  RH WIND       PRES   REMARKS
CEDAR RAPIDS   CLOUDY    80  77  90 SE5       29.96S HX  87
CHARLES CITY * MOSUNNY   81  77  89 SE9       29.94S HX  88
CLINTON *      CLOUDY    82  73  74 E3        29.99R HX  88
DECORAH *      SUNNY     81  72  74 SE6G13    29.95S HX  84
DUBUQUE        CLOUDY    82  71  69 S6        29.99S HX  86
MONTICELLO *   SUNNY     82  73  74 SE6       29.96S HX  88
OELWEIN *      SUNNY     81  73  78 SE12G17   29.95F HX  85
WATERLOO       CLOUDY    81  73  76 SE13      29.91F HX  86
$$

IAZ064-065-067-068-078-280000-
   EAST CENTRAL IOWA

CITY           SKY/WX    TMP DP  RH WIND       PRES   REMARKS
DAVENPORT      CLOUDY    82  72  71 SE5       29.97R HX  87
IOWA CITY      CLOUDY    81  74  79 CALM      29.96F HX  86
MT. PLEASANT * LGT RAIN  82  73  74 CALM      29.97R HX  88
MUSCATINE *    SUNNY     82  72  69 E5        29.95F HX  87
QUAD CITIES    CLOUDY    84  73  69 CALM      29.95R HX  90
$$

IAZ062-063-075>077-085>089-095>099-280000-
   SOUTHEAST IOWA

CITY           SKY/WX    TMP DP  RH WIND       PRES   REMARKS
BURLINGTON     CLOUDY    82  75  79 NE7       29.94S HX  89
FAIRFIELD *    RAIN      75  72  88 NW8G14    29.98R
FORT MADISON * SUNNY     79  77  94 CALM      29.97R HX  83
KEOKUK *       PTSUNNY   82  75  78 NE3       29.94R HX  89
OSKALOOSA *    LGT RAIN  70  68  94 CALM      29.99F
CENTERVILLE *    N/A     73  72  94 NE16G24   29.97F
OTTUMWA        TSTM      71  70  96 CALM      29.97F FOG
WASHINGTON *   SUNNY     79  75  89 CALM      29.97F HX  82
$$

ABBREVIATIONS USED IN REMARKS
   TC - TEMPERATURES IN CELSIUS
  WCI - WIND CHILL INDEX
   HX - HEAT INDEX
  VSB - VISIBILITY
$$




USA.gov is the U.S. government's official web portal to all federal, state and local government web resources and services.